,,Stat6,,Stat2,,Stat8,,Stat9,,Stat10,,Wind1,,Wind1,
time,status,PA1M_AVG,status,PR1M_SUM,status,RH1M_AVG,status,SR1M_AVG,status,TA1M_AVG,status,W1dAve1m,status,W1sAve1m,
2009-01-16, 00:00:00,VALID,920.272,VALID,0,VALID,92.6046,VALID,-0.0849042,VALID,19.7163,VALID,148,VALID,1.17597,
2009-01-16, 00:01:00,VALID,920.272,VALID,0,VALID,92.8856,VALID,-0.0339617,VALID,19.6541,VALID,150,VALID,1.24509,
2009-01-16, 00:02:00,VALID,920.262,VALID,0,VALID,93.1501,VALID,-0.0339617,VALID,19.6254,VALID,159,VALID,1.12202,
2009-01-16, 00:03:00,VALID,920.234,VALID,0,VALID,93.3574,VALID,-0.0339617,VALID,19.589,VALID,160,VALID,1.64933,
2009-01-16, 00:04:00,VALID,920.23,VALID,0,VALID,93.5125,VALID,-0.0509425,VALID,19.5633,VALID,163,VALID,1.15371,
2009-01-16, 00:05:00,VALID,920.231,VALID,0,VALID,93.5965,VALID,-0.0339617,VALID,19.557,VALID,181,VALID,1.18839,
2009-01-16, 00:06:00,VALID,920.251,VALID,0,VALID,93.5647,VALID,-0.0169808,VALID,19.5338,VALID,165,VALID,1.125,
2009-01-16, 00:07:00,VALID,920.265,VALID,0,VALID,93.4629,VALID,-0.0339617,VALID,19.56,VALID,165,VALID,1.53036,
2009-01-16, 00:08:00,VALID,920.241,VALID,0,VALID,93.4159,VALID,-0.0169808,VALID,19.576,VALID,167,VALID,1.74461,
2009-01-16, 00:09:00,VALID,920.231,VALID,0,VALID,93.3981,VALID,-0.0169808,VALID,19.5825,VALID,168,VALID,1.26744,
2009-01-16, 00:10:00,VALID,920.217,VALID,0,VALID,93.3053,VALID,-0.0849042,VALID,19.5857,VALID,146,VALID,1.49581,
2009-01-16, 00:11:00,VALID,920.203,VALID,0,VALID,93.126,VALID,-0.0169808,VALID,19.5793,VALID,139,VALID,1.31765,
2009-01-16, 00:12:00,VALID,920.195,VALID,0,VALID,93.0293,VALID,-0.0339617,VALID,19.5922,VALID,162,VALID,0.922238,
2009-01-16, 00:13:00,VALID,920.187,VALID,0,VALID,92.9365,VALID,-0.0339617,VALID,19.6025,VALID,166,VALID,1.63681,
2009-01-16, 00:14:00,VALID,920.193,VALID,0,VALID,92.8627,VALID,-0.0339617,VALID,19.6022,VALID,165,VALID,1.51914,
2009-01-16, 00:15:00,VALID,920.202,VALID,0,VALID,92.7737,VALID,-0.0509425,VALID,19.6214,VALID,164,VALID,1.1369,
2009-01-16, 00:16:00,VALID,920.2,VALID,0,VALID,92.6097,VALID,-0.0679233,VALID,19.6217,VALID,155,VALID,1.22326,
2009-01-16, 00:17:00,VALID,920.209,VALID,0,VALID,92.5614,VALID,-0.0679233,VALID,19.6446,VALID,174,VALID,1.3647,
2009-01-16, 00:18:00,VALID,920.205,VALID,0,VALID,92.6211,VALID,-0.0339617,VALID,19.6249,VALID,143,VALID,1.18395,
2009-01-16, 00:19:00,VALID,920.198,VALID,0,VALID,92.817,VALID,-0.0169808,VALID,19.5835,VALID,167,VALID,1.36967,
2009-01-16, 00:20:00,VALID,920.195,VALID,0,VALID,92.8958,VALID,-0.101885,VALID,19.5503,VALID,160,VALID,1.30959,
2009-01-16, 00:21:00,VALID,920.178,VALID,0,VALID,92.9212,VALID,-0.0339617,VALID,19.5441,VALID,157,VALID,1.2776,
2009-01-16, 00:22:00,VALID,920.158,VALID,0,VALID,92.8538,VALID,-0.0509425,VALID,19.5573,VALID,173,VALID,1.37411,
2009-01-16, 00:23:00,VALID,920.143,VALID,0,VALID,92.7775,VALID,0.0169808,VALID,19.562,VALID,158,VALID,1.37909,
2009-01-16, 00:24:00,VALID,920.132,VALID,0,VALID,92.555,VALID,0.0169808,VALID,19.5917,VALID,159,VALID,1.86476,
2009-01-16, 00:25:00,VALID,920.112,VALID,0,VALID,92.321,VALID,0.0849042,VALID,19.6434,VALID,159,VALID,1.65099,
2009-01-16, 00:26:00,VALID,920.09,VALID,0,VALID,92.2638,VALID,0.0339617,VALID,19.6626,VALID,168,VALID,1.51367,
2009-01-16, 00:27:00,VALID,920.078,VALID,0,VALID,92.0553,VALID,0.0849042,VALID,19.6526,VALID,176,VALID,2.33363,
2009-01-16, 00:28:00,VALID,920.069,VALID,0,VALID,91.614,VALID,0.0679233,VALID,19.6918,VALID,160,VALID,1.85629,
2009-01-16, 00:29:00,VALID,920.06,VALID,0,VALID,90.9108,VALID,0.0509425,VALID,19.7762,VALID,153,VALID,2.67206,
2009-01-16, 00:30:00,VALID,920.058,VALID,0,VALID,90.4263,VALID,0.0339617,VALID,19.8543,VALID,126,VALID,2.1766,
2009-01-16, 00:31:00,VALID,920.035,VALID,0,VALID,90.1402,VALID,0.0509425,VALID,19.89,VALID,126,VALID,2.20898,
2009-01-16, 00:32:00,VALID,920.043,VALID,0,VALID,90.2547,VALID,0.0169808,VALID,19.8935,VALID,125,VALID,2.75836,
2009-01-16, 00:33:00,VALID,920.016,VALID,0,VALID,90.3437,VALID,0.0339617,VALID,19.877,VALID,123,VALID,2.19817,
2009-01-16, 00:34:00,VALID,919.996,VALID,0,VALID,90.2915,VALID,0.0509425,VALID,19.8962,VALID,139,VALID,1.4827,
2009-01-16, 00:35:00,VALID,919.982,VALID,0,VALID,90.4365,VALID,0.0679233,VALID,19.8605,VALID,158,VALID,1.02965,
2009-01-16, 00:36:00,VALID,919.965,VALID,0,VALID,90.5077,VALID,0.0339617,VALID,19.8256,VALID,163,VALID,1.64501,
2009-01-16, 00:37:00,VALID,919.935,VALID,0,VALID,90.6069,VALID,0,VALID,19.7931,VALID,175,VALID,1.7439,
2009-01-16, 00:38:00,VALID,919.952,VALID,0,VALID,90.7417,VALID,-0.0509425,VALID,19.7582,VALID,150,VALID,1.7017,
2009-01-16, 00:39:00,VALID,919.965,VALID,0,VALID,90.8816,VALID,-0.0679233,VALID,19.729,VALID,139,VALID,1.82813,
2009-01-16, 00:40:00,VALID,919.972,VALID,0,VALID,91.1067,VALID,-0.0339617,VALID,19.6741,VALID,135,VALID,1.82986,
2009-01-16, 00:41:00,VALID,919.958,VALID,0,VALID,91.2809,VALID,-0.0169808,VALID,19.6279,VALID,136,VALID,1.82344,
2009-01-16, 00:42:00,VALID,919.934,VALID,0,VALID,91.4373,VALID,-0.0339617,VALID,19.6055,VALID,133,VALID,1.88529,
2009-01-16, 00:43:00,VALID,919.917,VALID,0,VALID,91.6242,VALID,-0.0849042,VALID,19.5698,VALID,132,VALID,1.22109,
2009-01-16, 00:44:00,VALID,919.91,VALID,0,VALID,91.8124,VALID,-0.0509425,VALID,19.5246,VALID,111,VALID,1.24746,
2009-01-16, 00:45:00,VALID,919.893,VALID,0,VALID,92.0235,VALID,-0.0679233,VALID,19.4692,VALID,136,VALID,1.62016,
2009-01-16, 00:46:00,VALID,919.88,VALID,0,VALID,92.185,VALID,-0.0679233,VALID,19.4368,VALID,142,VALID,1.33873,
2009-01-16, 00:47:00,VALID,919.877,VALID,0,VALID,92.3274,VALID,-0.101885,VALID,19.4078,VALID,140,VALID,1.14081,
2009-01-16, 00:48:00,VALID,919.855,VALID,0,VALID,92.508,VALID,-0.0509425,VALID,19.3816,VALID,111,VALID,1.6232,
2009-01-16, 00:49:00,VALID,919.851,VALID,0,VALID,92.4851,VALID,-0.0849042,VALID,19.4148,VALID,143,VALID,1.75195,
2009-01-16, 00:50:00,VALID,919.864,VALID,0,VALID,92.4253,VALID,-0.0849042,VALID,19.4178,VALID,156,VALID,1.21512,
2009-01-16, 00:51:00,VALID,919.862,VALID,0,VALID,92.5207,VALID,-0.101885,VALID,19.4055,VALID,147,VALID,0.756669,
2009-01-16, 00:52:00,VALID,919.869,VALID,0,VALID,92.7216,VALID,-0.0679233,VALID,19.3721,VALID,162,VALID,1.26643,
2009-01-16, 00:53:00,VALID,919.873,VALID,0,VALID,92.6873,VALID,-0.0849042,VALID,19.3661,VALID,145,VALID,1.4083,
2009-01-16, 00:54:00,VALID,919.861,VALID,0,VALID,92.6453,VALID,-0.0339617,VALID,19.3696,VALID,134,VALID,0.797238,
2009-01-16, 00:55:00,VALID,919.864,VALID,0,VALID,92.6885,VALID,-0.0849042,VALID,19.3791,VALID,168,VALID,1.33761,
2009-01-16, 00:56:00,VALID,919.841,VALID,0,VALID,92.6313,VALID,-0.0679233,VALID,19.3626,VALID,154,VALID,1.06734,
2009-01-16, 00:57:00,VALID,919.818,VALID,0,VALID,92.4736,VALID,-0.0679233,VALID,19.3459,VALID,167,VALID,1.49943,
2009-01-16, 00:58:00,VALID,919.813,VALID,0,VALID,92.2244,VALID,-0.0509425,VALID,19.3724,VALID,148,VALID,1.65476,
2009-01-16, 00:59:00,VALID,919.8,VALID,0,VALID,92.0718,VALID,-0.0679233,VALID,19.3691,VALID,150,VALID,1.13863,
2009-01-16, 01:00:00,VALID,919.801,VALID,0,VALID,91.703,VALID,-0.0679233,VALID,19.3784,VALID,140,VALID,2.58789,
2009-01-16, 01:01:00,VALID,919.808,VALID,0,VALID,91.422,VALID,-0.0339617,VALID,19.4173,VALID,118,VALID,1.71839,
2009-01-16, 01:02:00,VALID,919.817,VALID,0,VALID,91.5339,VALID,-0.0169808,VALID,19.3981,VALID,128,VALID,0.928472,
2009-01-16, 01:03:00,VALID,919.811,VALID,0,VALID,91.4843,VALID,-0.0339617,VALID,19.3816,VALID,145,VALID,1.80753,
2009-01-16, 01:04:00,VALID,919.826,VALID,0,VALID,91.2694,VALID,-0.0509425,VALID,19.4372,VALID,138,VALID,1.0957,
2009-01-16, 01:05:00,VALID,919.836,VALID,0,VALID,91.2249,VALID,-0.0509425,VALID,19.4502,VALID,151,VALID,1.18636,
2009-01-16, 01:06:00,VALID,919.845,VALID,0,VALID,91.3165,VALID,-0.101885,VALID,19.4432,VALID,134,VALID,1.22166,
2009-01-16, 01:07:00,VALID,919.839,VALID,0,VALID,91.3928,VALID,-0.0169808,VALID,19.4335,VALID,137,VALID,1.37295,
2009-01-16, 01:08:00,VALID,919.844,VALID,0,VALID,91.4436,VALID,-0.0679233,VALID,19.4335,VALID,144,VALID,1.51094,
2009-01-16, 01:09:00,VALID,919.841,VALID,0,VALID,91.5339,VALID,-0.0679233,VALID,19.3976,VALID,151,VALID,1.22994,
2009-01-16, 01:10:00,VALID,919.831,VALID,0,VALID,91.7475,VALID,-0.0679233,VALID,19.3788,VALID,142,VALID,1.98399,
2009-01-16, 01:11:00,VALID,919.823,VALID,0,VALID,91.7806,VALID,-0.0679233,VALID,19.3988,VALID,132,VALID,1.8801,
2009-01-16, 01:12:00,VALID,919.81,VALID,0,VALID,91.6089,VALID,-0.0849042,VALID,19.424,VALID,133,VALID,1.52028,
2009-01-16, 01:13:00,VALID,919.805,VALID,0,VALID,91.5835,VALID,-0.0849042,VALID,19.4173,VALID,149,VALID,1.20694,
2009-01-16, 01:14:00,VALID,919.779,VALID,0,VALID,91.6827,VALID,-0.0679233,VALID,19.4018,VALID,148,VALID,0.802344,
2009-01-16, 01:15:00,VALID,919.76,VALID,0,VALID,91.8111,VALID,-0.0679233,VALID,19.3784,VALID,162,VALID,0.491319,
2009-01-16, 01:16:00,VALID,919.761,VALID,0,VALID,91.8569,VALID,-0.0509425,VALID,19.3951,VALID,171,VALID,1.35176,
2009-01-16, 01:17:00,VALID,919.765,VALID,0,VALID,91.8569,VALID,-0.0339617,VALID,19.4011,VALID,174,VALID,0.956745,
2009-01-16, 01:18:00,VALID,919.774,VALID,0,VALID,91.8175,VALID,-0.0169808,VALID,19.4078,VALID,152,VALID,1.62519,
2009-01-16, 01:19:00,VALID,919.786,VALID,0,VALID,91.7615,VALID,-0.0509425,VALID,19.3883,VALID,130,VALID,1.72452,
2009-01-16, 01:20:00,VALID,919.78,VALID,0,VALID,91.7323,VALID,-0.101885,VALID,19.3853,VALID,123,VALID,1.25071,
2009-01-16, 01:21:00,VALID,919.78,VALID,0,VALID,91.6916,VALID,-0.0679233,VALID,19.3883,VALID,128,VALID,1.72456,
2009-01-16, 01:22:01,VALID,919.768,VALID,0,VALID,91.6878,VALID,-0.0679233,VALID,19.3818,VALID,131,VALID,1.44313,
2009-01-16, 01:23:00,VALID,919.786,VALID,0,VALID,91.717,VALID,0.0339617,VALID,19.3701,VALID,135,VALID,1.26265,
2009-01-16, 01:24:01,VALID,919.791,VALID,0,VALID,91.7959,VALID,0.0169808,VALID,19.3639,VALID,150,VALID,1.2706,
2009-01-16, 01:25:01,VALID,919.807,VALID,0,VALID,91.9688,VALID,0.0169808,VALID,19.3804,VALID,151,VALID,1.81749,
2009-01-16, 01:26:00,VALID,919.799,VALID,0,VALID,91.9853,VALID,0.0169808,VALID,19.3963,VALID,145,VALID,1.44473,
2009-01-16, 01:27:00,VALID,919.798,VALID,0,VALID,91.9663,VALID,0.0509425,VALID,19.4191,VALID,139,VALID,1.15698,
2009-01-16, 01:28:00,VALID,919.782,VALID,0,VALID,91.9815,VALID,0.0509425,VALID,19.4253,VALID,142,VALID,1.90661,
2009-01-16, 01:29:00,VALID,919.74,VALID,0,VALID,92.0057,VALID,0.0509425,VALID,19.4385,VALID,145,VALID,2.10603,
2009-01-16, 01:30:01,VALID,919.709,VALID,0,VALID,91.9701,VALID,0.0339617,VALID,19.4517,VALID,146,VALID,1.51101,
2009-01-16, 01:31:00,VALID,919.684,VALID,0,VALID,92.1608,VALID,0.0339617,VALID,19.4061,VALID,136,VALID,1.91424,
2009-01-16, 01:32:00,VALID,919.645,VALID,0,VALID,92.4698,VALID,0.0339617,VALID,19.3834,VALID,146,VALID,1.89367,
2009-01-16, 01:33:00,VALID,919.623,VALID,0,VALID,92.6809,VALID,0.0509425,VALID,19.3639,VALID,133,VALID,1.45046,
2009-01-16, 01:34:00,VALID,919.618,VALID,0,VALID,92.8042,VALID,0.0339617,VALID,19.3507,VALID,129,VALID,1.2487,
2009-01-16, 01:35:01,VALID,919.595,VALID,0,VALID,92.9975,VALID,0.0509425,VALID,19.3444,VALID,138,VALID,1.99491,
2009-01-16, 01:36:00,VALID,919.594,VALID,0,VALID,93.229,VALID,0,VALID,19.3187,VALID,137,VALID,1.70712,
2009-01-16, 01:37:00,VALID,919.599,VALID,0,VALID,93.571,VALID,0.0509425,VALID,19.2728,VALID,136,VALID,1.62031,
2009-01-16, 01:38:01,VALID,919.613,VALID,0,VALID,93.8457,VALID,0.0169808,VALID,19.2374,VALID,144,VALID,1.39944,
2009-01-16, 01:39:01,VALID,919.609,VALID,0,VALID,94.0021,VALID,0.0339617,VALID,19.2242,VALID,133,VALID,1.63857,
2009-01-16, 01:40:00,VALID,919.614,VALID,0,VALID,94.1598,VALID,0.0339617,VALID,19.2112,VALID,148,VALID,1.61488,
2009-01-16, 01:41:01,VALID,919.61,VALID,0,VALID,94.2755,VALID,0.0339617,VALID,19.2277,VALID,146,VALID,1.70635,
2009-01-16, 01:42:00,VALID,919.596,VALID,0,VALID,94.2971,VALID,0.0339617,VALID,19.2307,VALID,157,VALID,1.32203,
2009-01-16, 01:43:00,VALID,919.591,VALID,0,VALID,94.3086,VALID,0.0849042,VALID,19.2401,VALID,154,VALID,1.19103,
2009-01-16, 01:44:01,VALID,919.605,VALID,0,VALID,94.2958,VALID,0.0339617,VALID,19.2471,VALID,147,VALID,0.983648,
2009-01-16, 01:45:00,VALID,919.589,VALID,0,VALID,94.2729,VALID,0.0339617,VALID,19.2566,VALID,148,VALID,1.31374,
2009-01-16, 01:46:00,VALID,919.565,VALID,0,VALID,94.1992,VALID,0.0509425,VALID,19.2726,VALID,167,VALID,1.43459,
2009-01-16, 01:47:00,VALID,919.564,VALID,0,VALID,94.0771,VALID,0.0679233,VALID,19.3185,VALID,166,VALID,0.989955,
2009-01-16, 01:48:00,VALID,919.536,VALID,0,VALID,94.0123,VALID,0.0509425,VALID,19.3375,VALID,167,VALID,1.31414,
2009-01-16, 01:49:01,VALID,919.521,VALID,0,VALID,94.0034,VALID,0.0339617,VALID,19.3442,VALID,153,VALID,1.9334,
2009-01-16, 01:50:00,VALID,919.521,VALID,0,VALID,94.0364,VALID,0.0169808,VALID,19.3442,VALID,150,VALID,1.83705,
2009-01-16, 01:51:00,VALID,919.498,VALID,0,VALID,94.1382,VALID,0.0339617,VALID,19.3315,VALID,147,VALID,1.82404,
2009-01-16, 01:52:01,VALID,919.479,VALID,0,VALID,94.2462,VALID,0.0339617,VALID,19.3317,VALID,158,VALID,2.25465,
2009-01-16, 01:53:00,VALID,919.453,VALID,0,VALID,94.3823,VALID,-0.0679233,VALID,19.3327,VALID,154,VALID,2.11906,
2009-01-16, 01:54:01,VALID,919.436,VALID,0,VALID,94.3518,VALID,-0.0509425,VALID,19.3392,VALID,146,VALID,2.16978,
2009-01-16, 01:55:01,VALID,919.411,VALID,0,VALID,94.2755,VALID,-0.101885,VALID,19.3489,VALID,147,VALID,1.79371,
2009-01-16, 01:56:00,VALID,919.405,VALID,0,VALID,94.3022,VALID,-0.0509425,VALID,19.3424,VALID,149,VALID,1.24873,
2009-01-16, 01:57:01,VALID,919.391,VALID,0,VALID,94.4065,VALID,-0.0849042,VALID,19.3197,VALID,148,VALID,1.60234,
2009-01-16, 01:58:01,VALID,919.374,VALID,0,VALID,94.4967,VALID,-0.101885,VALID,19.294,VALID,153,VALID,1.70851,
2009-01-16, 01:59:01,VALID,919.351,VALID,0,VALID,94.5934,VALID,-0.101885,VALID,19.2908,VALID,133,VALID,2.07102,
2009-01-16, 02:00:01,VALID,919.34,VALID,0,VALID,94.7078,VALID,-0.0849042,VALID,19.2808,VALID,140,VALID,1.75266,
2009-01-16, 02:01:00,VALID,919.314,VALID,0,VALID,94.8325,VALID,-0.0509425,VALID,19.268,VALID,120,VALID,1.27129,
2009-01-16, 02:02:00,VALID,919.283,VALID,0,VALID,94.9622,VALID,-0.0679233,VALID,19.2483,VALID,125,VALID,1.40777,
2009-01-16, 02:03:00,VALID,919.257,VALID,0,VALID,95.1135,VALID,-0.0169808,VALID,19.2224,VALID,113,VALID,1.12845,
2009-01-16, 02:04:00,VALID,919.244,VALID,0,VALID,95.3513,VALID,-0.0849042,VALID,19.1705,VALID,132,VALID,2.2059,
2009-01-16, 02:05:00,VALID,919.219,VALID,0,VALID,95.57,VALID,-0.0339617,VALID,19.1478,VALID,127,VALID,1.98056,
2009-01-16, 02:06:00,VALID,919.192,VALID,0,VALID,95.7671,VALID,-0.0339617,VALID,19.1186,VALID,137,VALID,2.01925,
2009-01-16, 02:07:01,VALID,919.157,VALID,0,VALID,95.9108,VALID,-0.0679233,VALID,19.0889,VALID,140,VALID,1.6439,
2009-01-16, 02:08:01,VALID,919.135,VALID,0,VALID,95.8637,VALID,-0.0849042,VALID,19.1156,VALID,147,VALID,2.0878,
2009-01-16, 02:09:01,VALID,919.107,VALID,0,VALID,95.6666,VALID,-0.0679233,VALID,19.1515,VALID,146,VALID,1.88903,
2009-01-16, 02:10:01,VALID,919.102,VALID,0,VALID,95.4581,VALID,-0.0679233,VALID,19.1707,VALID,137,VALID,1.80918,
2009-01-16, 02:11:01,VALID,919.085,VALID,0,VALID,95.3869,VALID,-0.101885,VALID,19.1677,VALID,147,VALID,1.891,
2009-01-16, 02:12:00,VALID,919.073,VALID,0,VALID,95.4403,VALID,-0.0849042,VALID,19.138,VALID,144,VALID,1.53853,
2009-01-16, 02:13:00,VALID,919.058,VALID,0,VALID,95.5229,VALID,-0.0509425,VALID,19.1283,VALID,157,VALID,1.8679,
2009-01-16, 02:14:01,VALID,919.06,VALID,0,VALID,95.598,VALID,-0.0679233,VALID,19.1091,VALID,173,VALID,1.71895,
2009-01-16, 02:15:01,VALID,919.067,VALID,0,VALID,95.5369,VALID,-0.0339617,VALID,19.1088,VALID,165,VALID,1.72935,
2009-01-16, 02:16:00,VALID,919.065,VALID,0,VALID,95.4403,VALID,-0.0339617,VALID,19.1251,VALID,152,VALID,1.6888,
2009-01-16, 02:17:01,VALID,919.056,VALID,0,VALID,95.2953,VALID,-0.0679233,VALID,19.1316,VALID,156,VALID,0.974964,
2009-01-16, 02:18:01,VALID,919.053,VALID,0,VALID,95.364,VALID,-0.0509425,VALID,19.1186,VALID,151,VALID,1.48876,
2009-01-16, 02:19:01,VALID,919.044,VALID,0,VALID,95.4797,VALID,-0.0509425,VALID,19.0857,VALID,161,VALID,0.995164,
2009-01-16, 02:20:01,VALID,919.027,VALID,0,VALID,95.5331,VALID,-0.0169808,VALID,19.0894,VALID,140,VALID,1.54965,
2009-01-16, 02:21:01,VALID,919.005,VALID,0,VALID,95.5217,VALID,-0.0169808,VALID,19.1056,VALID,149,VALID,1.79706,
2009-01-16, 02:22:01,VALID,918.991,VALID,0,VALID,95.3983,VALID,0,VALID,19.1153,VALID,162,VALID,1.40552,
2009-01-16, 02:23:01,VALID,918.975,VALID,0,VALID,95.3004,VALID,-0.0679233,VALID,19.1121,VALID,153,VALID,1.82576,
2009-01-16, 02:24:00,VALID,918.951,VALID,0,VALID,95.2521,VALID,-0.0339617,VALID,19.1316,VALID,172,VALID,2.08176,
2009-01-16, 02:25:00,VALID,918.941,VALID,0,VALID,95.1707,VALID,-0.0679233,VALID,19.1478,VALID,164,VALID,1.61338,
2009-01-16, 02:26:00,VALID,918.948,VALID,0,VALID,95.1351,VALID,-0.0849042,VALID,19.135,VALID,151,VALID,1.77176,
2009-01-16, 02:27:00,VALID,918.949,VALID,0,VALID,95.2801,VALID,-0.101885,VALID,19.1098,VALID,157,VALID,1.70139,
2009-01-16, 02:28:00,VALID,918.967,VALID,0,VALID,95.2928,VALID,-0.0509425,VALID,19.0896,VALID,152,VALID,2.02076,
2009-01-16, 02:29:00,VALID,918.963,VALID,0,VALID,95.1949,VALID,-0.0679233,VALID,19.0991,VALID,147,VALID,1.55868,
2009-01-16, 02:30:00,VALID,918.951,VALID,0,VALID,95.0385,VALID,-0.0509425,VALID,19.1478,VALID,143,VALID,1.80115,
2009-01-16, 02:31:00,VALID,918.954,VALID,0,VALID,94.8681,VALID,-0.0509425,VALID,19.1672,VALID,145,VALID,1.63872,
2009-01-16, 02:32:00,VALID,918.941,VALID,0,VALID,94.7307,VALID,-0.0679233,VALID,19.1899,VALID,141,VALID,1.70437,
2009-01-16, 02:33:00,VALID,918.932,VALID,0,VALID,94.6277,VALID,0,VALID,19.1867,VALID,132,VALID,1.17478,
2009-01-16, 02:34:00,VALID,918.921,VALID,0,VALID,94.6684,VALID,-0.0509425,VALID,19.1835,VALID,137,VALID,1.05804,
2009-01-16, 02:35:00,VALID,918.89,VALID,0,VALID,94.7994,VALID,-0.0339617,VALID,19.1642,VALID,146,VALID,1.59499,
2009-01-16, 02:36:00,VALID,918.867,VALID,0,VALID,94.8757,VALID,-0.0509425,VALID,19.1478,VALID,140,VALID,1.64968,
2009-01-16, 02:37:00,VALID,918.846,VALID,0,VALID,95.102,VALID,-0.0169808,VALID,19.0959,VALID,142,VALID,2.05771,
2009-01-16, 02:38:00,VALID,918.833,VALID,0,VALID,95.2038,VALID,-0.0509425,VALID,19.0926,VALID,149,VALID,1.84162,
2009-01-16, 02:39:00,VALID,918.824,VALID,0,VALID,95.0702,VALID,-0.0339617,VALID,19.1248,VALID,145,VALID,1.70064,
2009-01-16, 02:40:00,VALID,918.823,VALID,0,VALID,94.9316,VALID,0,VALID,19.141,VALID,134,VALID,1.77325,
2009-01-16, 02:41:00,VALID,918.827,VALID,0,VALID,94.7485,VALID,-0.0169808,VALID,19.1343,VALID,158,VALID,1.48219,
2009-01-16, 02:42:00,VALID,918.828,VALID,0,VALID,94.7193,VALID,-0.0679233,VALID,19.154,VALID,155,VALID,1.74368,
2009-01-16, 02:43:00,VALID,918.819,VALID,0,VALID,94.7117,VALID,0,VALID,19.1637,VALID,148,VALID,2.05678,
2009-01-16, 02:44:00,VALID,918.812,VALID,0,VALID,94.7829,VALID,-0.0509425,VALID,19.151,VALID,136,VALID,1.88014,
2009-01-16, 02:45:00,VALID,918.809,VALID,0,VALID,94.8782,VALID,-0.0339617,VALID,19.135,VALID,133,VALID,2.35972,
2009-01-16, 02:46:00,VALID,918.803,VALID,0,VALID,94.8223,VALID,-0.0509425,VALID,19.1283,VALID,132,VALID,1.16897,
2009-01-16, 02:47:00,VALID,918.798,VALID,0,VALID,94.821,VALID,-0.0679233,VALID,19.1186,VALID,128,VALID,1.53507,
2009-01-16, 02:48:00,VALID,918.807,VALID,0,VALID,94.629,VALID,-0.0509425,VALID,19.1251,VALID,135,VALID,1.42035,
2009-01-16, 02:49:00,VALID,918.826,VALID,0,VALID,94.4001,VALID,-0.0509425,VALID,19.148,VALID,139,VALID,0.411776,
2009-01-16, 02:50:00,VALID,918.843,VALID,0,VALID,94.1382,VALID,-0.0509425,VALID,19.174,VALID,144,VALID,0.489462,
2009-01-16, 02:51:00,VALID,918.83,VALID,0,VALID,94.3175,VALID,-0.0339617,VALID,19.1932,VALID,145,VALID,2.39589,
2009-01-16, 02:52:00,VALID,918.819,VALID,0,VALID,94.1115,VALID,-0.0169808,VALID,19.2518,VALID,161,VALID,0.943598,
2009-01-16, 02:53:00,VALID,918.828,VALID,0,VALID,94.1191,VALID,0,VALID,19.2321,VALID,159,VALID,1.29371,
2009-01-16, 02:54:00,VALID,918.815,VALID,0,VALID,94.2653,VALID,-0.0679233,VALID,19.1967,VALID,147,VALID,1.32849,
2009-01-16, 02:55:00,VALID,918.79,VALID,0,VALID,94.4764,VALID,-0.0509425,VALID,19.1575,VALID,158,VALID,1.69668,
2009-01-16, 02:56:00,VALID,918.796,VALID,0,VALID,94.5972,VALID,-0.0509425,VALID,19.1413,VALID,149,VALID,2.07649,
2009-01-16, 02:57:00,VALID,918.762,VALID,0,VALID,94.6748,VALID,-0.0339617,VALID,19.1642,VALID,161,VALID,1.7555,
2009-01-16, 02:58:00,VALID,918.729,VALID,0,VALID,94.6036,VALID,-0.0339617,VALID,19.1802,VALID,148,VALID,2.55017,
2009-01-16, 02:59:00,VALID,918.688,VALID,0,VALID,94.3798,VALID,-0.0679233,VALID,19.2356,VALID,159,VALID,2.46112,
2009-01-16, 03:00:00,VALID,918.653,VALID,0,VALID,93.8762,VALID,-0.0849042,VALID,19.2775,VALID,150,VALID,1.74382,
2009-01-16, 03:01:00,VALID,918.63,VALID,0,VALID,93.833,VALID,-0.0509425,VALID,19.284,VALID,142,VALID,2.15234,
2009-01-16, 03:02:00,VALID,918.6,VALID,0,VALID,94.0453,VALID,-0.0679233,VALID,19.2161,VALID,134,VALID,2.17055,
2009-01-16, 03:03:00,VALID,918.597,VALID,0,VALID,94.3378,VALID,-0.0509425,VALID,19.1575,VALID,139,VALID,1.70039,
2009-01-16, 03:04:00,VALID,918.602,VALID,0,VALID,94.4332,VALID,-0.101885,VALID,19.1318,VALID,143,VALID,1.81473,
2009-01-16, 03:05:00,VALID,918.595,VALID,0,VALID,94.5247,VALID,-0.0509425,VALID,19.1353,VALID,147,VALID,1.81517,
2009-01-16, 03:06:00,VALID,918.595,VALID,0,VALID,94.5031,VALID,-0.0679233,VALID,19.148,VALID,138,VALID,1.78199,
2009-01-16, 03:07:00,VALID,918.588,VALID,0,VALID,94.4904,VALID,-0.0169808,VALID,19.1121,VALID,118,VALID,1.23326,
2009-01-16, 03:08:00,VALID,918.573,VALID,0,VALID,94.6036,VALID,0,VALID,19.0525,VALID,112,VALID,1.16892,
2009-01-16, 03:09:00,VALID,918.554,VALID,0,VALID,94.8248,VALID,0,VALID,19.0363,VALID,112,VALID,1.807,
2009-01-16, 03:10:00,VALID,918.553,VALID,0,VALID,94.9685,VALID,0,VALID,19.0073,VALID,133,VALID,1.76465,
2009-01-16, 03:11:00,VALID,918.527,VALID,0,VALID,95.2712,VALID,0.0169808,VALID,18.9716,VALID,130,VALID,1.92569,
2009-01-16, 03:12:00,VALID,918.53,VALID,0,VALID,95.3424,VALID,0,VALID,18.932,VALID,117,VALID,1.43714,
2009-01-16, 03:13:00,VALID,918.514,VALID,0,VALID,95.4721,VALID,0,VALID,18.8998,VALID,136,VALID,1.78486,
2009-01-16, 03:14:00,VALID,918.529,VALID,0,VALID,95.4479,VALID,0,VALID,18.9095,VALID,119,VALID,1.60085,
2009-01-16, 03:15:00,VALID,918.56,VALID,0,VALID,95.3538,VALID,0,VALID,18.926,VALID,136,VALID,1.81702,
2009-01-16, 03:16:00,VALID,918.586,VALID,0,VALID,95.4098,VALID,-0.0169808,VALID,18.9165,VALID,133,VALID,1.7729,
2009-01-16, 03:17:00,VALID,918.605,VALID,0,VALID,95.4619,VALID,0,VALID,18.9422,VALID,151,VALID,0.927871,
2009-01-16, 03:18:00,VALID,918.601,VALID,0,VALID,95.3983,VALID,0,VALID,18.9682,VALID,154,VALID,1.20884,
2009-01-16, 03:19:00,VALID,918.61,VALID,0,VALID,95.392,VALID,0,VALID,18.9714,VALID,157,VALID,1.81143,
2009-01-16, 03:20:00,VALID,918.604,VALID,0,VALID,95.4288,VALID,0.0169808,VALID,18.9811,VALID,159,VALID,1.41562,
2009-01-16, 03:21:00,VALID,918.607,VALID,0,VALID,95.3169,VALID,0,VALID,19.0041,VALID,169,VALID,1.69029,
2009-01-16, 03:22:00,VALID,918.63,VALID,0,VALID,95.1427,VALID,-0.0169808,VALID,19.0168,VALID,154,VALID,1.52402,
2009-01-16, 03:23:00,VALID,918.646,VALID,0,VALID,95.013,VALID,0.0169808,VALID,19.0393,VALID,147,VALID,1.5767,
2009-01-16, 03:24:00,VALID,918.641,VALID,0,VALID,94.9113,VALID,0.0169808,VALID,19.0592,VALID,145,VALID,0.977108,
2009-01-16, 03:25:00,VALID,918.653,VALID,0,VALID,94.9062,VALID,0.0169808,VALID,19.0555,VALID,146,VALID,1.24333,
2009-01-16, 03:26:00,VALID,918.682,VALID,0,VALID,94.8312,VALID,0,VALID,19.0784,VALID,149,VALID,1.10356,
2009-01-16, 03:27:00,VALID,918.69,VALID,0,VALID,94.7104,VALID,0.0169808,VALID,19.1009,VALID,149,VALID,2.09561,
2009-01-16, 03:28:00,VALID,918.692,VALID,0,VALID,94.5591,VALID,0.0339617,VALID,19.1299,VALID,163,VALID,2.02641,
2009-01-16, 03:29:00,VALID,918.704,VALID,0,VALID,94.4001,VALID,0.0339617,VALID,19.153,VALID,157,VALID,1.18713,
2009-01-16, 03:30:00,VALID,918.723,VALID,0,VALID,94.3556,VALID,0.0509425,VALID,19.1591,VALID,156,VALID,1.73624,